Regional Weather Roundup
Issued by NWS

Home | Current Version | Previous Version | Text Only | Print | Product List | Glossary Off
Versions: 1 2 3 4 5 6 7 8 9 10 11 12 13 14 15 16 17 18 19 20 21 22 23 24 25 26 27 28 29 30 31 32 33 34 35 36 37 38 39 40 41 42 43 44 45 46 47 48 49 50

000
ASUS45 KTFX 290610
RWRMT
MONTANA REGIONAL WEATHER ROUNDUP
NATIONAL WEATHER SERVICE GREAT FALLS MT
1200 AM MDT WED JUL 29 2015

NOTE: "FAIR" INDICATES FEW OR NO CLOUDS BELOW 12000 FEET WITH NO
SIGNIFICANT WEATHER AND/OR OBSTRUCTIONS TO VISIBILITY.

MTZ001>007-043-290700-
WEST OF THE DIVIDE

CITY           SKY/WX    TMP DP  RH WIND       PRES   REMARKS
KALISPELL      CLEAR     52  42  69 CALM      30.21S
MISSOULA       CLEAR     56  44  64 CALM      30.26R
BUTTE          CLEAR     45  37  73 SE7       30.33F
MULLAN PASS    CLEAR     53  33  46 SW6       30.35S
DEER LODGE       N/A     52  37  58 CALM      30.33S
EUREKA           N/A     64  45  48 E5        30.20R
HAMILTON         N/A     54  41  62 SE5       30.26F
LIBBY            N/A     54  43  66 CALM      30.22R
PLAINS           N/A     57  42  57 CALM      30.22S
RONAN            N/A     59  48  66 W2        30.26S
$$

MTZ008-052>055-290700-
SOUTHWEST MONTANA

CITY           SKY/WX    TMP DP  RH WIND       PRES   REMARKS
BOZEMAN        PTCLDY    49  42  77 SE7       30.28R
DILLON         CLEAR     51  38  60 S9        30.31S
W YELLOWSTONE  CLEAR     36  36 100 CALM      30.40S
TWIN BRIDGES     N/A     51  39  63 E3        30.26S
$$

MTZ009-010-012-014-046-048-049-054-290700-
EAST SLOPES AND CENTRAL MONTANA

CITY           SKY/WX    TMP DP  RH WIND       PRES   REMARKS
CUT BANK       CLEAR     54  40  59 W13       30.16S
GREAT FALLS    CLEAR     53  39  59 W8        30.18R
HELENA         CLEAR     57  37  47 W8        30.23S
CONRAD           N/A     51  46  83 MISG      30.17S
$$

MTZ011-013-016-021-045-047-050-051-290700-
NORTH CENTRAL MONTANA

CITY           SKY/WX    TMP DP  RH WIND       PRES   REMARKS
HAVRE          PTCLDY    54  49  83 SW10      30.08R
LEWISTOWN      PTCLDY    55  39  54 SW12      30.19S
CHINOOK          N/A     55  50  82 W5        30.07R
FORT BENTON      N/A     61  39  44 SW6       30.14S
$$

MTZ017>020-022>027-061-062-290700-
NORTHEAST MONTANA

CITY           SKY/WX    TMP DP  RH WIND       PRES   REMARKS
GLASGOW        PTCLDY    57  49  74 W6        30.00S
JORDAN           N/A     54  48  80 W6        30.07S
SIDNEY         MOCLDY    61  48  63 SW12      29.95S
WOLF POINT     MOCLDY    60  51  72 W9        29.98S
MALTA            N/A     56  49  77 CALM      30.00S
POPLAR           N/A     59  52  77 W9        29.97R
SCOBEY           N/A     55  48  77 W3        29.94S
$$

MTZ028>42-056>058-290700-
SOUTHCENTRAL AND SOUTHEAST MONTANA

CITY           SKY/WX    TMP DP  RH WIND       PRES   REMARKS
BAKER          CLEAR     58  39  49 W13       30.08S
BILLINGS       CLEAR     63  36  36 W14       30.20S
LIVINGSTON     MOCLDY    58  36  43 W20       30.25S
MILES CITY     PTCLDY    57  42  57 W8        30.08S
EKALAKA          N/A     59  32  36 SW14      30.10S
FORSYTH          N/A     63  41  45 CALM      30.11S
LAUREL           N/A     60  34  37 CALM      30.18R
ROUNDUP          N/A     57  40  53 CALM      30.08R
$$

REGIONAL REPORTS...DAKOTAS

CITY           SKY/WX    TMP DP  RH WIND       PRES   REMARKS
WILLISTON      CLOUDY    60  52  74 W20G26    29.89F
MINOT          LGT RAIN  62  50  64 W30G41    29.72R
DICKINSON      CLEAR     60  45  57 W17       29.96S
BEACH          FAIR      57  45  62 W14       30.03S
CROSBY         CLOUDY    59  55  88 W22G29    29.82R
BISMARCK       PTCLDY    60  50  69 W23G31    29.89S
GRAND FORKS    CLOUDY    64  54  69 W28G35    29.55F
FARGO          MOCLDY    67  49  52 SW28G37   29.73R
BUFFALO SD       N/A     54  36  50 W10       30.05R
RAPID CITY     CLEAR     53  45  74 NW6       30.17S
$$

REGIONAL REPORTS...WYOMING/IDAHO/WASHINGTON

CITY           SKY/WX    TMP DP  RH WIND       PRES   REMARKS
GILLETTE       CLEAR     51  35  54 W8        30.24R
SHERIDAN       CLEAR     54  37  52 CALM      30.24R
BUFFALO WY     CLEAR     54  35  48 W9        30.29S
CODY           CLEAR     54  32  43 CALM      30.30S
YELLOWSTONE LA   N/A     32  29  88 CALM      30.47S
IDAHO FALLS    CLEAR     49  41  74 N5        30.32S
SALMON         CLEAR     52  43  71 CALM      30.28S
BOISE          CLEAR     66  37  34 CALM      30.20S
SPOKANE        PTCLDY    68  37  32 SW8       30.19S
$$

REGIONAL REPORTS...ALBERTA

CITY           SKY/WX    TMP DP  RH WIND       PRES   REMARKS
EDMONTON       CLEAR     61  46  59 W7        29.98S
CALGARY        LGT RAIN  63  46  55 VRB2      30.11R
LETHBRIDGE     CLEAR     57  45  62 W13       30.10S
MEDICINE HAT   CLEAR     57  48  72 SW6       30.04R
WATERTON GATE    N/A     59  41  51 SW14G25     N/A
CARDSTON         N/A     59  41  51 W9          N/A
MILK RIVER       N/A     52  43  71 W12         N/A
ONEFOUR          N/A     57  46  67 W14         N/A
$$

REGIONAL REPORTS...SASKATCHEWAN

CITY           SKY/WX    TMP DP  RH WIND       PRES   REMARKS
SWIFT CURRENT  CLEAR     57  46  67 W10       29.97R
REGINA         CLOUDY    59  55  88 W16G25    29.80R
SASKATOON      MOCLDY    59  54  82 NW9       29.83S
CYPRESS HILLS    N/A     54  41  62 W3          N/A
VAL MARIE        N/A     52  46  82 W9          N/A
ROCKGLEN         N/A     57  48  72 W12G18      N/A
ASSINIBOIA       N/A     55  50  82 W7          N/A
$$


USA.gov is the U.S. government's official web portal to all federal, state and local government web resources and services.